Litchfield, MN

2:21 PM CST on January 23, 2017 (GMT -0600)
Litchfield Municipal

Weather History for KLJF - August, 2012

Change the Weather History Date:

Wednesday, August 29, 2012

  Actual Average Record
Temperature  
Mean Temperature 76 °F -  
Max Temperature 89 °F 80 °F 96 °F (1961)
Min Temperature 64 °F 58 °F 39 °F (1988)
Cooling Degree Days 12    
Growing Degree Days 26 (Base 50)    
Moisture  
Dew Point 64 °F    
Average Humidity 69    
Maximum Humidity 94    
Minimum Humidity 40    
Precipitation  
Precipitation 0.00 in - - ()
Sea Level Pressure  
Sea Level Pressure 29.87 in    
Wind  
Wind Speed 8 mph (ESE)    
Max Wind Speed 15 mph    
Max Gust Speed 17 mph    
Visibility 10 miles    
Events      
Averages and records for this station are not official NWS values.
T = Trace of Precipitation, MM = Missing Value Source: NWS Daily Summary

Daily Weather History Graph

Daily Weather History Graph

Search for Another Location

Airport or City:

Trip Planner

Search our weather history database for the weather conditions in past years. The results will help you decide how hot, cold, wet, or windy it might be!

Date:

Astronomy

Aug. 29, 2012 Rise Set
Actual Time 6:36 AM CDT 7:59 PM CDT
Civil Twilight 6:06 AM CDT 8:30 PM CDT
Nautical Twilight 5:29 AM CDT 9:06 PM CDT
Astronomical Twilight 4:50 AM CDT 9:46 PM CDT
Moon 6:42 PM CDT (8/29) 4:30 AM CDT (8/29)
Length of Visible Light 14h 23m
Length of Day
13h 22m
Waxing Gibbous, 96% of the Moon is Illuminated
Aug 29
Waxing Gibbous
Aug 31
Full
Sep 8
Last Quarter
Sep 15
New
Sep 22
First Quarter

Hourly Weather History & Observations

Time (CDT) Temp. Heat Index Dew Point Humidity Pressure Visibility Wind Dir Wind Speed Gust Speed Precip Events Conditions
12:13 AM 69.8 °F - 66.2 °F 88% 29.97 in 10.0 mi ESE 9.2 mph - N/A   Scattered Clouds
12:33 AM 69.8 °F - 66.2 °F 88% 29.97 in 10.0 mi ESE 8.1 mph - N/A   Scattered Clouds
12:53 AM 69.8 °F - 66.2 °F 88% 29.97 in 10.0 mi ESE 6.9 mph - N/A   Scattered Clouds
1:13 AM 69.8 °F - 66.2 °F 88% 29.97 in 10.0 mi East 5.8 mph - N/A   Scattered Clouds
1:33 AM 68.0 °F - 64.4 °F 88% 29.96 in 10.0 mi East 5.8 mph - N/A   Scattered Clouds
1:53 AM 68.0 °F - 64.4 °F 88% 29.95 in 10.0 mi East 5.8 mph - N/A   Scattered Clouds
2:13 AM 68.0 °F - 64.4 °F 88% 29.95 in 10.0 mi East 5.8 mph - N/A   Scattered Clouds
2:33 AM 66.2 °F - 64.4 °F 94% 29.94 in 10.0 mi ESE 5.8 mph - N/A   Scattered Clouds
2:53 AM 66.2 °F - 64.4 °F 94% 29.94 in 10.0 mi ESE 6.9 mph - N/A   Scattered Clouds
3:13 AM 66.2 °F - 64.4 °F 94% 29.93 in 10.0 mi ESE 5.8 mph - N/A   Scattered Clouds
3:33 AM 66.2 °F - 64.4 °F 94% 29.93 in 10.0 mi East 5.8 mph - N/A   Clear
3:53 AM 66.2 °F - 64.4 °F 94% 29.93 in 10.0 mi East 8.1 mph - N/A   Clear
4:13 AM 66.2 °F - 64.4 °F 94% 29.93 in 10.0 mi ESE 5.8 mph - N/A   Clear
4:33 AM 66.2 °F - 64.4 °F 94% 29.92 in 10.0 mi East 4.6 mph - N/A   Clear
4:53 AM 66.2 °F - 64.4 °F 94% 29.92 in 10.0 mi ESE 6.9 mph - N/A   Scattered Clouds
5:13 AM 64.4 °F - 62.6 °F 94% 29.92 in 10.0 mi East 4.6 mph - N/A   Scattered Clouds
5:33 AM 64.4 °F - 62.6 °F 94% 29.92 in 10.0 mi ESE 6.9 mph - N/A   Clear
5:53 AM 64.4 °F - 62.6 °F 94% 29.91 in 10.0 mi ESE 5.8 mph - N/A   Clear
6:13 AM 64.4 °F - 62.6 °F 94% 29.91 in 10.0 mi East 5.8 mph - N/A   Clear
6:33 AM 64.4 °F - 62.6 °F 94% 29.91 in 10.0 mi ESE 6.9 mph - N/A   Clear
6:53 AM 64.4 °F - 62.6 °F 94% 29.91 in 10.0 mi ESE 5.8 mph - N/A   Clear
7:13 AM 66.2 °F - 64.4 °F 94% 29.91 in 10.0 mi ESE 5.8 mph - N/A   Clear
7:33 AM 68.0 °F - 66.2 °F 94% 29.91 in 10.0 mi East 5.8 mph - N/A   Clear
7:53 AM 68.0 °F - 66.2 °F 94% 29.92 in 10.0 mi East 5.8 mph - N/A   Clear
8:13 AM 69.8 °F - 66.2 °F 88% 29.92 in 10.0 mi East 6.9 mph - N/A   Clear
8:33 AM 71.6 °F - 69.8 °F 94% 29.92 in 10.0 mi East 8.1 mph - N/A   Clear
8:53 AM 73.4 °F - 71.6 °F 94% 29.91 in 10.0 mi East 9.2 mph - N/A   Clear
9:13 AM 73.4 °F - 69.8 °F 88% 29.90 in 10.0 mi ESE 9.2 mph - N/A   Clear
9:33 AM 75.2 °F - 66.2 °F 73% 29.90 in 10.0 mi SE 9.2 mph - N/A   Clear
9:53 AM 75.2 °F - 66.2 °F 73% 29.90 in 10.0 mi ESE 8.1 mph - N/A   Clear
10:13 AM 78.8 °F - 66.2 °F 65% 29.90 in 10.0 mi SE 8.1 mph - N/A   Clear
10:53 AM 80.6 °F 82.3 °F 64.4 °F 58% 29.90 in 10.0 mi ESE 10.4 mph - N/A   Clear
11:13 AM 82.4 °F 83.9 °F 64.4 °F 54% 29.90 in 10.0 mi ESE 10.4 mph - N/A   Clear
11:33 AM 82.4 °F 83.9 °F 64.4 °F 54% 29.90 in 10.0 mi East 9.2 mph - N/A   Clear
11:53 AM 84.2 °F 85.6 °F 64.4 °F 51% 29.89 in 10.0 mi East 9.2 mph - N/A   Clear
12:13 PM 84.2 °F 85.0 °F 62.6 °F 48% 29.89 in 10.0 mi East 10.4 mph - N/A   Clear
12:33 PM 86.0 °F 86.6 °F 62.6 °F 45% 29.88 in 10.0 mi ESE 10.4 mph 16.1 mph N/A   Clear
12:53 PM 86.0 °F 87.3 °F 64.4 °F 48% 29.88 in 10.0 mi SE 9.2 mph 17.3 mph N/A   Clear
1:13 PM 86.0 °F 86.6 °F 62.6 °F 45% 29.87 in 10.0 mi SE 15.0 mph - N/A   Clear
1:33 PM 86.0 °F 86.6 °F 62.6 °F 45% 29.86 in 10.0 mi ESE 12.7 mph 17.3 mph N/A   Clear
1:53 PM 87.8 °F 88.5 °F 62.6 °F 43% 29.86 in 10.0 mi ESE 10.4 mph - N/A   Clear
2:13 PM 87.8 °F 88.5 °F 62.6 °F 43% 29.85 in 10.0 mi ESE 9.2 mph - N/A   Clear
2:33 PM 89.6 °F 90.1 °F 62.6 °F 40% 29.85 in 10.0 mi ESE 11.5 mph - N/A   Clear
2:53 PM 89.6 °F 90.1 °F 62.6 °F 40% 29.84 in 10.0 mi ESE 12.7 mph 17.3 mph N/A   Clear
3:13 PM 89.6 °F 90.1 °F 62.6 °F 40% 29.83 in 10.0 mi ESE 12.7 mph - N/A   Clear
3:33 PM 89.6 °F 90.1 °F 62.6 °F 40% 29.83 in 10.0 mi SE 11.5 mph - N/A   Clear
3:53 PM 89.6 °F 90.1 °F 62.6 °F 40% 29.82 in 10.0 mi SE 12.7 mph - N/A   Clear
4:13 PM 89.6 °F 90.1 °F 62.6 °F 40% 29.82 in 10.0 mi ESE 13.8 mph - N/A   Clear
4:32 PM 89.6 °F 90.1 °F 62.6 °F 40% 29.81 in 10.0 mi SE 11.5 mph - N/A   Clear
4:53 PM 89.6 °F 90.1 °F 62.6 °F 40% 29.81 in 10.0 mi SE 11.5 mph - N/A   Clear
5:11 PM 89.6 °F 90.1 °F 62.6 °F 40% 29.81 in 10.0 mi SSE 3.5 mph - N/A   Clear
5:33 PM 89.6 °F 90.1 °F 62.6 °F 40% 29.80 in 7.0 mi SE 5.8 mph - N/A   Clear
5:53 PM 89.6 °F 90.1 °F 62.6 °F 40% 29.80 in 10.0 mi SE 8.1 mph - N/A   Clear
6:13 PM 89.6 °F 90.1 °F 62.6 °F 40% 29.80 in 10.0 mi ESE 10.4 mph - N/A   Clear
6:33 PM 89.6 °F 90.1 °F 62.6 °F 40% 29.79 in 10.0 mi SE 9.2 mph - N/A   Clear
6:53 PM 87.8 °F 89.4 °F 64.4 °F 46% 29.78 in 10.0 mi ESE 5.8 mph - N/A   Clear
7:13 PM 86.0 °F 87.3 °F 64.4 °F 48% 29.78 in 10.0 mi ESE 4.6 mph - N/A   Clear
7:33 PM 82.4 °F 83.4 °F 62.6 °F 51% 29.79 in 10.0 mi Calm Calm - N/A   Clear
7:53 PM 78.8 °F - 60.8 °F 54% 29.79 in 10.0 mi Calm Calm - N/A   Clear
8:13 PM 75.2 °F - 60.8 °F 61% 29.79 in 10.0 mi East 3.5 mph - N/A   Clear
8:53 PM 73.4 °F - 64.4 °F 73% 29.78 in 10.0 mi ESE 5.8 mph - N/A   Clear
9:13 PM 71.6 °F - 64.4 °F 78% 29.78 in 10.0 mi ESE 5.8 mph - N/A   Clear
9:33 PM 71.6 °F - 66.2 °F 83% 29.78 in 10.0 mi SE 4.6 mph - N/A   Clear
9:53 PM 73.4 °F - 66.2 °F 78% 29.77 in 10.0 mi SE 5.8 mph - N/A   Clear
10:33 PM 73.4 °F - 68.0 °F 83% 29.77 in 7.0 mi SE 5.8 mph - N/A   Clear
10:53 PM 71.6 °F - 66.2 °F 83% 29.76 in 7.0 mi SE 3.5 mph - N/A   Clear